Location: Olomouc
(49.5830°N, 17.2500°E)
Time: 20:57:02
(UTC+02:00)

ISS - Visible Passes

Search period start: 20 May 2025 00:00
Search period end: 30 May 2025 00:00
Orbit: 416 x 419 km, 51.6° (Epoch: 20 May)

Date Brightness Start Highest point End Pass type
(mag) Time Alt. Az. Time Alt. Az. Time Alt. Az.
20 May -3.6 21:29:45 10° WNW 21:33:07 74° NNE 21:36:28 10° E visible
20 May -2.9 23:06:40 10° W 23:09:44 34° SSW 23:09:48 34° SSW visible
21 May -3.4 22:18:31 10° WNW 22:21:47 49° SSW 22:23:25 25° SE visible
22 May -3.7 21:30:25 10° WNW 21:33:46 69° SSW 21:37:02 10° ESE visible
22 May -1.7 23:07:54 10° W 23:09:56 16° SW 23:09:56 16° SW visible
23 May -2.2 22:19:25 10° W 22:22:12 24° SW 22:23:35 18° S visible
24 May -2.8 21:31:07 10° W 21:34:13 35° SSW 21:37:15 10° SE visible
25 May -1.2 22:21:22 10° WSW 22:22:20 11° SW 22:23:19 10° SSW visible
26 May -1.6 21:32:12 10° W 21:34:26 17° SW 21:36:41 10° S visible
